Latest Weather Observations for Noonamah

IDD60801

Issued at 8:01 am CST Monday 27 March 2017 (issued every 30 minutes, with the page automatically refreshed every 10 minutes)

About weather observations | Map of weather stations | Latest weather observations for NT | Other Formats
Station Details ID: 014314 Name: NOONAMAH AIRSTRIP Lat: -12.61 Lon: 131.05 Height: 17.5 m
Data from the previous 72 hours. | See also: Recent months at Noonamah
Date/Time
CST
Temp
°C
App
Temp
°C
Dew
Point
°C
Rel
Hum
%
Delta-T
°C
Wind Press
QNH
hPa
Press
MSL
hPa
Rain since
9am
mm
Dir  Spd
km/h
Gust
km/h
Spd
kts
Gust
kts
27/08:00am 25.7 32.0 24.7 94 0.7 CALM 0 2 0 1 1010.3 1010.1 5.0
27/07:30am 25.5 31.6 24.5 94 0.7 CALM 0 4 0 2 1010.2 1010.0 5.0
27/07:00am 25.9 31.2 25.2 96 0.5 NW 7 20 4 11 1010.3 1010.1 4.8
27/06:30am 25.8 32.3 25.1 96 0.5 CALM 0 0 0 0 1009.8 1009.6 4.8
27/06:00am 26.1 32.9 25.6 97 0.4 CALM 0 0 0 0 1009.6 1009.4 4.8
27/05:30am 26.0 32.8 25.5 97 0.4 CALM 0 0 0 0 1009.5 1009.3 4.8
27/05:00am 25.9 32.5 25.2 96 0.5 CALM 0 0 0 0 1009.2 1009.0 4.8
27/04:30am 26.1 32.8 25.4 96 0.5 CALM 0 0 0 0 1009.1 1008.9 4.8
27/04:00am 26.2 33.1 25.7 97 0.4 CALM 0 0 0 0 1009.0 1008.8 4.8
27/03:30am 26.2 33.0 25.5 96 0.5 CALM 0 0 0 0 1009.1 1008.9 4.8
27/03:00am 26.1 32.8 25.4 96 0.5 CALM 0 0 0 0 1009.2 1009.0 4.6
27/02:30am 25.8 31.9 25.1 96 0.5 W 2 4 1 2 1009.2 1009.0 4.6
27/02:00am 25.9 32.5 25.2 96 0.5 CALM 0 0 0 0 1009.6 1009.4 4.6
27/01:30am 26.1 32.7 25.2 95 0.6 CALM 0 0 0 0 1009.9 1009.7 4.6
27/01:00am 26.3 33.0 25.4 95 0.6 CALM 0 0 0 0 1010.3 1010.1 4.6
27/12:30am 26.3 33.0 25.4 95 0.6 CALM 0 0 0 0 1010.2 1010.0 4.6
27/12:00am 26.5 33.3 25.6 95 0.6 CALM 0 0 0 0 1010.2 1010.0 4.6
 
Date/Time
CST
Temp
°C
App
Temp
°C
Dew
Point
°C
Rel
Hum
%
Delta-T
°C
Wind Press
QNH
hPa
Press
MSL
hPa
Rain since
9am
mm
Dir  Spd
km/h
Gust
km/h
Spd
kts
Gust
kts
26/11:30pm 26.5 33.3 25.5 94 0.7 CALM 0 0 0 0 1010.6 1010.4 4.6
26/11:00pm 26.5 33.3 25.5 94 0.7 CALM 0 0 0 0 1010.8 1010.6 4.6
26/10:30pm 26.5 33.3 25.6 95 0.6 CALM 0 0 0 0 1010.6 1010.4 4.6
26/10:00pm 26.7 33.3 25.3 92 1.0 CALM 0 0 0 0 1010.4 1010.2 4.6
26/09:30pm 26.7 31.6 24.7 89 1.4 NW 7 17 4 9 1009.9 1009.7 4.6
26/09:00pm 27.6 34.4 25.6 89 1.4 CALM 0 0 0 0 1009.4 1009.2 4.4
26/08:30pm 28.0 30.6 17.5 52 6.6 CALM 0 2 0 1 1009.0 1008.8 4.4
26/08:00pm 28.1 29.6 17.6 53 6.6 NNW 6 7 3 4 1008.4 1008.2 4.4
26/07:30pm 28.6 30.7 18.1 53 6.7 WNW 4 7 2 4 1008.1 1007.9 4.4
26/07:00pm 29.3 31.1 18.7 52 6.8 NNW 7 11 4 6 1007.6 1007.4 4.4
26/06:30pm 30.2 32.4 19.6 53 7.0 NNW 7 13 4 7 1007.1 1006.9 4.4
26/06:00pm 31.2 33.1 20.5 53 7.1 N 11 17 6 9 1006.5 1006.3 4.4
26/05:30pm 31.5 33.5 20.8 53 7.2 N 11 15 6 8 1006.3 1006.1 4.4
26/05:00pm 32.2 34.5 21.4 53 7.3 NNW 11 19 6 10 1006.2 1006.0 4.4
26/04:30pm 32.0 34.2 21.2 52 7.3 NNW 11 17 6 9 1006.1 1005.9 4.4
26/04:00pm 31.5 33.9 20.8 53 7.1 N 9 17 5 9 1005.8 1005.6 4.4
26/03:30pm 31.8 33.9 21.0 52 7.3 NNW 11 17 6 9 1005.7 1005.5 4.4
26/03:00pm 31.3 33.2 20.6 53 7.1 N 11 22 6 12 1005.8 1005.6 4.4
26/02:30pm 31.7 33.0 20.9 52 7.2 N 15 20 8 11 1006.3 1006.1 4.4
26/02:00pm 31.9 34.1 21.1 52 7.3 N 11 19 6 10 1006.5 1006.3 4.4
26/01:30pm 31.8 33.5 21.0 52 7.3 N 13 20 7 11 1006.9 1006.7 4.4
26/01:00pm 32.0 34.2 21.2 52 7.3 N 11 22 6 12 1007.5 1007.3 4.4
26/12:30pm 32.1 34.4 21.3 53 7.3 N 11 22 6 12 1007.9 1007.7 4.4
26/12:00pm 31.1 33.3 20.4 53 7.1 NNW 9 17 5 9 1008.1 1007.9 4.4
26/11:30am 29.0 30.7 18.4 52 6.8 N 7 13 4 7 1008.8 1008.6 4.4
26/11:00am 29.3 31.1 18.7 52 6.8 N 7 17 4 9 1009.2 1009.0 4.4
26/10:30am 26.9 27.8 16.5 53 6.4 NNW 7 13 4 7 1009.5 1009.3 4.0
26/10:00am 28.8 30.6 18.3 53 6.7 NNE 6 13 3 7 1009.4 1009.2 0.0
26/09:30am 28.0 29.5 17.5 52 6.6 NE 6 9 3 5 1009.4 1009.2 0.0
26/09:00am 26.6 27.5 16.2 52 6.4 E 6 9 3 5 1009.0 1008.8 27.4
26/08:30am 25.6 26.2 15.3 53 6.2 E 6 7 3 4 1008.7 1008.5 27.2
26/08:00am 25.3 26.5 15.0 53 6.2 E 2 6 1 3 1008.7 1008.5 27.2
26/07:30am 25.1 25.6 14.9 53 6.1 SE 6 6 3 3 1008.7 1008.5 27.2
26/07:00am 25.0 26.6 14.8 53 6.1 CALM 0 0 0 0 1008.5 1008.3 27.2
26/06:30am 25.1 25.9 14.9 53 6.1 ESE 4 4 2 2 1007.8 1007.6 27.2
26/06:00am 25.1 26.7 14.9 53 6.1 CALM 0 2 0 1 1007.5 1007.3 27.2
26/05:30am 25.1 26.3 14.9 53 6.1 ESE 2 4 1 2 1007.5 1007.3 27.2
26/05:00am 25.3 26.5 15.0 53 6.2 E 2 6 1 3 1007.3 1007.1 27.2
26/04:30am 25.5 26.8 15.2 53 6.2 ESE 2 4 1 2 1007.3 1007.1 27.2
26/04:00am 25.4 26.3 15.1 53 6.2 E 4 6 2 3 1007.2 1007.0 27.2
26/03:30am 25.3 25.8 15.0 53 6.2 SE 6 6 3 3 1007.2 1007.0 27.2
26/03:00am 25.4 26.7 15.1 53 6.2 SE 2 6 1 3 1007.2 1007.0 27.2
26/02:30am 25.5 27.2 15.2 53 6.2 CALM 0 0 0 0 1007.5 1007.3 27.2
26/02:00am 25.6 26.2 15.3 53 6.2 ENE 6 9 3 5 1007.4 1007.2 27.2
26/01:30am 25.7 26.7 15.4 53 6.2 E 4 7 2 4 1007.7 1007.5 27.2
26/01:00am 25.6 27.0 15.3 53 6.2 E 2 6 1 3 1008.3 1008.1 27.2
26/12:30am 25.6 26.6 15.3 53 6.2 E 4 6 2 3 1008.5 1008.3 27.2
26/12:00am 25.8 27.6 15.5 53 6.3 CALM 0 0 0 0 1009.0 1008.8 27.2
 
Date/Time
CST
Temp
°C
App
Temp
°C
Dew
Point
°C
Rel
Hum
%
Delta-T
°C
Wind Press
QNH
hPa
Press
MSL
hPa
Rain since
9am
mm
Dir  Spd
km/h
Gust
km/h
Spd
kts
Gust
kts
25/11:30pm 25.8 26.9 15.5 53 6.3 SE 4 6 2 3 1008.9 1008.7 27.2
25/11:00pm 25.7 26.7 15.4 53 6.2 ESE 4 6 2 3 1009.0 1008.8 27.2
25/10:30pm 25.6 27.3 15.3 53 6.2 CALM 0 6 0 3 1009.0 1008.8 27.2
25/10:00pm 25.4 27.1 15.1 53 6.2 CALM 0 0 0 0 1008.6 1008.4 27.2
25/09:30pm 25.5 26.8 15.2 53 6.2 ESE 2 4 1 2 1008.3 1008.1 27.2
25/09:00pm 25.6 26.6 15.3 53 6.2 ESE 4 6 2 3 1008.0 1007.8 27.2
25/08:30pm 25.5 27.2 15.2 53 6.2 CALM 0 4 0 2 1007.5 1007.3 27.2
25/08:00pm 25.6 27.0 15.3 53 6.2 ESE 2 6 1 3 1007.1 1006.9 27.2
25/07:30pm 25.5 27.2 15.2 53 6.2 CALM 0 0 0 0 1006.7 1006.5 27.2
25/07:00pm 25.5 26.8 15.2 53 6.2 SW 2 4 1 2 1006.2 1006.0 27.2
25/06:30pm 25.8 27.2 15.5 53 6.3 SW 2 6 1 3 1005.7 1005.5 27.0
25/06:00pm 26.7 27.7 16.3 53 6.4 ESE 6 9 3 5 1005.4 1005.2 22.2
25/05:30pm 28.0 30.6 17.5 52 6.6 CALM 0 6 0 3 1005.5 1005.3 22.2
25/05:00pm 28.1 30.0 17.6 53 6.6 ESE 4 6 2 3 1005.3 1005.1 22.2
25/04:30pm 28.1 30.0 17.6 53 6.7 SE 4 6 2 3 1005.3 1005.1 22.2
25/04:00pm 27.6 29.3 17.2 53 6.5 SE 4 7 2 4 1005.7 1005.5 22.2
25/03:30pm 26.8 27.8 16.4 53 6.4 ESE 6 9 3 5 1005.5 1005.3 22.2
25/03:00pm 26.3 27.0 16.0 53 6.3 ESE 7 11 4 6 1005.9 1005.7 22.2
25/02:30pm 26.3 28.3 16.0 53 6.3 CALM 0 6 0 3 1006.1 1005.9 22.2
25/02:00pm 26.1 26.9 15.8 53 6.3 SSW 6 7 3 4 1006.6 1006.4 22.2
25/01:30pm 26.5 27.8 16.1 52 6.4 E 4 6 2 3 1007.3 1007.1 22.2
25/01:00pm 27.2 29.5 16.8 53 6.5 CALM 0 4 0 2 1007.3 1007.1 15.0
25/12:30pm 26.9 28.0 16.5 53 6.4 SSE 6 9 3 5 1007.6 1007.4 15.0
25/12:00pm 26.6 27.3 16.2 52 6.4 ESE 7 11 4 6 1008.2 1008.0 11.8
25/11:30am 26.1 26.7 15.8 53 6.3 NW 7 13 4 7 1008.6 1008.4 7.4
25/11:00am 29.0 31.2 18.4 52 6.8 NNE 4 7 2 4 1008.3 1008.1 0.0
25/10:30am 29.6 31.5 19.0 53 6.9 NNE 7 13 4 7 1008.3 1008.1 0.0
25/10:00am 29.5 31.4 18.9 53 6.9 NE 7 11 4 6 1008.4 1008.2 0.0
25/09:30am 28.0 29.5 17.5 52 6.6 E 6 7 3 4 1008.1 1007.9 0.0
25/09:00am 27.4 28.5 17.0 53 6.5 E 7 11 4 6 1007.9 1007.7 -
25/08:30am 27.2 28.4 16.8 53 6.5 ESE 6 9 3 5 1007.4 1007.2 -
25/08:00am 25.7 26.7 15.4 53 6.2 E 4 6 2 3 1007.0 1006.8 -
25/07:30am 25.1 25.9 14.9 53 6.1 ESE 4 6 2 3 1006.6 1006.4 -
25/07:00am 24.8 26.3 14.6 53 6.1 CALM 0 0 0 0 1006.7 1006.5 -
25/06:30am 24.7 26.1 14.5 53 6.1 CALM 0 0 0 0 1006.4 1006.2 7.2
25/06:00am 24.5 25.1 14.3 53 6.1 SE 4 6 2 3 1006.4 1006.2 7.2
25/05:30am 24.4 25.0 14.2 53 6.0 SE 4 7 2 4 1005.9 1005.7 7.2
25/05:00am 24.0 23.5 13.8 53 6.0 E 9 15 5 8 1005.5 1005.3 7.0
25/04:30am 23.9 22.2 13.7 53 6.0 NE 15 24 8 13 1005.8 1005.6 5.4
25/04:00am 25.2 25.7 14.9 52 6.2 ENE 6 9 3 5 1006.2 1006.0 4.0
25/03:30am 25.3 25.8 15.0 53 6.2 ESE 6 6 3 3 1006.5 1006.3 4.0
25/03:00am 25.3 26.9 15.0 53 6.2 CALM 0 2 0 1 1006.8 1006.6 4.0
25/02:30am 25.2 26.8 14.9 52 6.2 CALM 0 6 0 3 1007.0 1006.8 4.0
25/02:00am 25.1 26.3 14.9 53 6.1 S 2 4 1 2 1007.4 1007.2 4.0
25/01:30am 25.3 26.9 15.0 53 6.2 CALM 0 0 0 0 1007.6 1007.4 4.0
25/01:00am 25.2 26.0 14.9 52 6.2 ESE 4 6 2 3 1007.3 1007.1 4.0
25/12:30am 25.3 25.2 15.0 53 6.2 ESE 9 13 5 7 1007.4 1007.2 4.0
25/12:00am 25.3 25.6 15.0 53 6.2 ESE 7 13 4 7 1008.2 1008.0 4.0
 
Date/Time
CST
Temp
°C
App
Temp
°C
Dew
Point
°C
Rel
Hum
%
Delta-T
°C
Wind Press
QNH
hPa
Press
MSL
hPa
Rain since
9am
mm
Dir  Spd
km/h
Gust
km/h
Spd
kts
Gust
kts
24/11:30pm 25.1 25.4 14.9 53 6.1 SSE 7 11 4 6 1008.4 1008.2 4.0
24/11:00pm 25.4 26.3 15.1 53 6.2 S 4 7 2 4 1008.9 1008.7 4.0
24/10:30pm 25.6 26.2 15.3 53 6.2 S 6 11 3 6 1009.0 1008.8 4.0
24/10:00pm 25.9 27.7 15.6 53 6.3 CALM 0 0 0 0 1008.6 1008.4 4.0
24/09:30pm 25.9 27.7 15.6 53 6.3 CALM 0 0 0 0 1007.8 1007.6 4.0
24/09:00pm 26.1 26.7 15.8 53 6.3 SE 7 11 4 6 1007.2 1007.0 4.0
24/08:30pm 26.8 26.5 16.4 53 6.4 SE 13 24 7 13 1006.9 1006.7 4.0
24/08:00pm 27.3 28.3 16.9 53 6.5 ESE 7 9 4 5 1006.3 1006.1 4.0
24/07:30pm 27.8 29.9 17.3 52 6.6 NE 2 4 1 2 1005.8 1005.6 4.0
24/07:00pm 28.1 30.7 17.6 53 6.6 CALM 0 0 0 0 1006.0 1005.8 4.0
24/06:30pm 28.7 31.2 18.2 53 6.7 NNE 2 6 1 3 1005.5 1005.3 4.0
24/06:00pm 29.3 32.4 18.7 52 6.9 CALM 0 0 0 0 1005.4 1005.2 4.0
24/05:30pm 29.7 33.0 19.1 53 6.9 CALM 0 6 0 3 1005.0 1004.8 4.0
24/05:00pm 28.5 30.6 18.0 53 6.7 SE 4 7 2 4 1004.7 1004.5 4.0
24/04:30pm 29.2 30.6 18.6 52 6.8 SE 9 11 5 6 1004.7 1004.5 4.0
24/04:00pm 28.2 29.6 17.7 53 6.6 SSE 7 13 4 7 1005.4 1005.2 4.0
24/03:30pm 27.5 27.8 17.1 53 6.5 SE 11 17 6 9 1005.7 1005.5 4.0
24/03:00pm 27.5 29.6 17.1 53 6.5 SSE 2 6 1 3 1005.8 1005.6 4.0
24/02:30pm 27.7 29.1 17.3 53 6.5 NE 6 9 3 5 1006.4 1006.2 3.0
24/02:00pm 28.6 28.6 18.1 53 6.7 ENE 15 33 8 18 1006.2 1006.0 1.2
24/01:30pm 33.4 35.9 22.5 52 7.5 SE 13 19 7 10 1006.4 1006.2 0.0
24/01:00pm 32.9 36.3 22.0 52 7.4 ENE 7 11 4 6 1007.0 1006.8 0.0
24/12:30pm 32.6 35.9 21.8 53 7.3 SSE 7 13 4 7 1007.4 1007.2 0.0
24/12:00pm 31.8 34.9 21.0 52 7.3 SSE 6 9 3 5 1008.1 1007.9 0.0
24/11:30am 31.3 34.0 20.6 53 7.1 E 7 9 4 5 1008.7 1008.5 0.0
24/11:00am 31.0 33.7 20.3 53 7.1 E 6 11 3 6 1009.2 1009.0 0.0
24/10:30am 30.4 32.6 19.7 52 7.0 ESE 7 13 4 7 1009.2 1009.0 0.0
24/10:00am 30.4 32.6 19.7 52 7.0 ESE 7 13 4 7 1009.5 1009.3 0.0
24/09:30am 29.0 30.7 18.4 52 6.8 SE 7 13 4 7 1009.5 1009.3 0.0
24/09:00am 28.1 29.4 17.6 53 6.6 SSE 7 11 4 6 1009.3 1009.1 3.4
24/08:30am 26.4 27.7 16.1 53 6.3 SE 4 7 2 4 1008.9 1008.7 3.4

Other Formats:

Comma delimited format used in spreadsheet applications
http://www.bom.gov.au/fwo/IDD60801/IDD60801.94105.axf

JavaScript Object Notation format (JSON) in row-major order
http://www.bom.gov.au/fwo/IDD60801/IDD60801.94105.json